GW1640 Weather Reports


Display with metric or nautical units.
time (UTC)temp
F
wind
direction
speed
MPH
gust
MPH
rain 1hr
in
rain 24hr
in
rain mn
in
humidity
%
barometer
mb
20260507060051 53 174 6.0 10.0 0.00 0.11 0.00 85 1009.0
20260507054020 53 174 6.0 13.0 0.00 0.11 0.00 87 1008.6
20260507053035 53 173 5.0 9.0 0.00 0.11 0.00 88 1008.6
20260507052031 53 173 5.0 9.0 0.00 0.11 0.00 89 1008.4
20260507051025 52 173 4.0 8.0 0.00 0.11 0.00 89 1008.4
20260507050121 52 173 5.0 9.0 0.00 0.11 0.00 90 1008.2
20260507045015 52 173 5.0 11.0 0.00 0.11 0.00 90 1008.1
20260507044030 52 173 6.0 10.0 0.00 0.11 0.00 91 1008.0
20260507043025 52 173 7.0 15.0 0.00 0.11 0.00 93 1007.8
20260507042020 52 173 5.0 10.0 0.00 0.11 0.00 93 1007.6
20260507041054 52 172 4.0 8.0 0.00 0.11 0.00 94 1007.7
20260507040030 51 172 4.0 9.0 0.00 0.11 0.00 93 1007.7
20260507035025 51 171 3.0 4.0 0.00 0.11 0.00 92 1007.8
20260507034020 52 172 3.0 6.0 0.00 0.11 0.00 93 1007.6
20260507033015 52 172 6.0 9.0 0.00 0.11 0.00 93 1007.5
20260507032031 52 173 4.0 8.0 0.00 0.11 0.00 94 1007.4
20260507031026 52 173 4.0 7.0 0.00 0.11 0.00 94 1007.4
20260507030021 52 173 4.0 9.0 0.00 0.11 0.00 94 1007.4
20260507025015 52 173 2.0 4.0 0.00 0.11 0.00 94 1007.3
20260507024030 52 173 5.0 11.0 0.00 0.11 0.00 94 1007.4
20260507023025 51 173 4.0 8.0 0.00 0.10 0.00 95 1007.4
20260507022022 51 173 3.0 8.0 0.00 0.10 0.00 95 1007.3
20260507021016 50 173 3.0 4.0 0.00 0.10 0.00 95 1007.4
20260507020031 50 173 1.0 3.0 0.00 0.10 0.00 94 1007.3
20260507015026 50 173 1.0 2.0 0.00 0.10 0.00 93 1007.3
20260507014021 50 174 2.0 3.0 0.00 0.10 0.00 92 1007.2
20260507013016 50 174 3.0 4.0 0.00 0.10 0.00 92 1007.0
20260507012051 50 174 2.0 3.0 0.00 0.10 0.00 92 1007.0
20260507011026 50 174 3.0 6.0 0.00 0.10 0.00 92 1006.9
20260507010021 51 174 2.0 4.0 0.00 0.10 0.00 92 1007.0
20260507005016 51 174 3.0 6.0 0.00 0.10 0.00 92 1006.7
20260507004031 51 174 4.0 8.0 0.00 0.10 0.00 92 1006.6
20260507003027 52 173 3.0 6.0 0.00 0.10 0.00 92 1006.5
20260507002121 52 173 4.0 8.0 0.00 0.10 0.00 92 1006.6
20260507001136 53 173 5.0 9.0 0.00 0.10 0.00 94 1006.7
20260507000031 52 172 7.0 13.0 0.00 0.10 0.00 95 1006.7
20260506235026 52 172 5.0 10.0 0.00 0.10 0.00 95 1006.7
20260506233016 52 171 1.0 4.0 0.00 0.10 0.00 93 1006.4
20260506232031 52 171 1.0 3.0 0.00 0.10 0.00 92 1006.2
20260506231025 53 170 2.0 3.0 0.00 0.10 0.00 92 1006.1
20260506230021 53 169 3.0 4.0 0.00 0.10 0.00 92 1005.9
20260506225015 54 168 2.0 3.0 0.00 0.10 0.00 92 1006.0
20260506224031 54 167 1.0 2.0 0.00 0.10 0.00 92 1005.9
20260506223026 54 0.0 0.0 0.00 0.10 0.00 92 1005.9
20260506222022 54 167 1.0 2.0 0.00 0.10 0.00 93 1006.0
20260506221016 53 167 2.0 4.0 0.00 0.10 0.00 93 1006.2
20260506220031 53 167 4.0 8.0 0.00 0.10 0.10 95 1006.2
20260506215026 53 167 3.0 4.0 0.00 0.10 0.10 91 1006.0
20260506214021 54 167 1.0 2.0 0.00 0.10 0.10 90 1005.7
20260506213016 54 168 2.0 3.0 0.00 0.10 0.10 90 1005.7
20260506212031 54 202 1.0 2.0 0.00 0.10 0.10 90 1005.7
20260506211145 55 232 1.0 3.0 0.00 0.10 0.10 90 1005.6
20260506210020 55 279 4.0 7.0 0.00 0.10 0.10 91 1005.5
20260506205035 55 271 5.0 8.0 0.00 0.10 0.10 92 1005.5
20260506204030 56 264 8.0 15.0 0.01 0.10 0.10 92 1005.4
20260506203025 55 266 6.0 13.0 0.04 0.10 0.10 93 1005.2
20260506202119 55 254 4.0 7.0 0.04 0.10 0.10 92 1005.0
20260506201055 55 237 0.0 2.0 0.05 0.10 0.10 89 1004.7
20260506200029 55 229 3.0 4.0 0.05 0.10 0.10 90 1004.6
20260506195024 56 140 2.0 3.0 0.04 0.11 0.10 88 1004.5
20260506194019 56 121 5.0 10.0 0.04 0.15 0.09 89 1004.6
20260506193034 57 111 7.0 11.0 0.01 0.19 0.07 89 1004.7
20260506192029 58 118 7.0 10.0 0.00 0.28 0.06 86 1004.7
20260506191025 58 122 5.0 8.0 0.00 0.34 0.06 84 1004.6
20260506190019 59 157 4.0 7.0 0.00 0.34 0.06 83 1004.6
20260506185034 59 162 4.0 9.0 0.00 0.34 0.06 83 1004.2
20260506184129 59 170 2.0 3.0 0.00 0.34 0.06 82 1003.7
20260506183024 60 20 1.0 2.0 0.00 0.35 0.06 82 1003.3
20260506182138 60 327 0.0 1.0 0.00 0.42 0.06 79 1003.2
20260506181033 60 326 2.0 4.0 0.00 0.64 0.06 80 1003.0
20260506180028 61 337 2.0 4.0 0.00 0.80 0.06 77 1002.8
20260506175023 62 103 2.0 3.0 0.00 0.85 0.06 75 1002.8
20260506174138 62 7 1.0 2.0 0.00 0.87 0.06 73 1002.7
20260506173033 63 360 3.0 6.0 0.00 0.87 0.06 70 1002.7
20260506172127 62 61 2.0 3.0 0.00 0.88 0.06 73 1002.6
20260506171022 63 24 4.0 7.0 0.00 0.89 0.06 74 1002.6
20260506170018 63 352 3.0 4.0 0.00 0.90 0.06 73 1002.5
20260506165032 63 4 2.0 3.0 0.00 0.93 0.06 71 1002.5
20260506163022 64 314 1.0 3.0 0.00 0.94 0.06 69 1002.5
20260506162017 65 331 3.0 7.0 0.00 0.94 0.06 67 1002.7
20260506161033 66 141 1.0 4.0 0.05 0.94 0.06 72 1002.6
20260506160027 65 83 2.0 4.0 0.05 0.94 0.06 74 1002.7
20260506155022 63 67 3.0 4.0 0.05 0.94 0.06 78 1002.9
20260506154017 63 51 3.0 4.0 0.05 0.94 0.06 77 1003.0
20260506153032 62 49 1.0 2.0 0.05 0.94 0.06 79 1003.4
20260506152027 63 50 2.0 4.0 0.04 0.94 0.05 76 1003.6
20260506151022 64 97 2.0 3.0 0.00 0.90 0.01 75 1003.5
20260506150016 64 69 4.0 7.0 0.00 0.90 0.01 74 1003.6
20260506145031 64 47 2.0 4.0 0.01 0.90 0.01 68 1003.7
20260506144024 65 18 3.0 6.0 0.01 0.90 0.01 69 1003.7
20260506143017 64 6 3.0 6.0 0.01 0.90 0.01 69 1003.7
20260506142032 64 338 4.0 6.0 0.01 0.90 0.01 75 1003.9
20260506141028 64 310 2.0 3.0 0.01 0.90 0.01 74 1003.9
20260506140022 64 122 4.0 8.0 0.01 0.90 0.01 75 1004.1
20260506135017 65 123 8.0 14.0 0.00 0.89 0.00 72 1004.4
20260506134032 66 105 6.0 9.0 0.00 0.89 0.00 64 1004.3
20260506133030 67 124 2.0 7.0 0.00 0.89 0.00 57 1004.3
20260506132021 67 332 3.0 6.0 0.00 0.89 0.00 55 1004.2
20260506131016 68 360 3.0 6.0 0.00 0.89 0.00 54 1004.1
20260506130031 69 319 4.0 8.0 0.00 0.89 0.00 52 1004.2
20260506125146 69 72 3.0 7.0 0.00 0.89 0.00 53 1004.2
20260506124021 71 245 2.0 3.0 0.00 0.89 0.00 51 1004.4
20260506123036 71 315 1.0 3.0 0.00 0.89 0.00 52 1004.5
20260506122031 70 287 2.0 7.0 0.00 0.89 0.00 53 1004.5
20260506121026 69 218 1.0 3.0 0.00 0.89 0.00 55 1004.8
20260506120021 69 274 2.0 3.0 0.00 0.89 0.00 55 1004.8
20260506115016 70 268 3.0 6.0 0.00 0.89 0.00 55 1004.8
20260506114031 69 227 3.0 4.0 0.00 0.89 0.00 56 1004.9
20260506113026 68 39 3.0 6.0 0.00 0.89 0.00 57 1005.0
20260506112021 68 336 2.0 6.0 0.00 0.89 0.00 56 1005.0
20260506111016 68 238 4.0 7.0 0.00 0.89 0.00 58 1005.2
20260506110031 69 80 3.0 10.0 0.00 0.89 0.00 59 1005.1
20260506105125 68 240 4.0 8.0 0.00 0.89 0.00 58 1005.3
20260506104020 68 235 4.0 9.0 0.00 0.89 0.00 61 1005.3
20260506103015 68 248 4.0 9.0 0.00 0.89 0.00 61 1005.4
20260506102030 67 262 3.0 11.0 0.00 0.89 0.00 64 1005.5
20260506101025 65 227 3.0 7.0 0.00 0.89 0.00 66 1005.7
20260506100020 65 263 5.0 9.0 0.00 0.89 0.00 66 1005.8
20260506095135 64 264 5.0 10.0 0.00 0.89 0.00 67 1005.8
20260506094030 64 252 6.0 10.0 0.00 0.89 0.00 70 1005.9
20260506092020 65 238 4.0 7.0 0.00 0.89 0.00 70 1005.9
20260506091016 63 265 4.0 8.0 0.00 0.89 0.00 70 1005.9
20260506090131 63 245 6.0 11.0 0.00 0.89 0.00 71 1005.9
20260506085126 62 236 6.0 11.0 0.00 0.89 0.00 72 1005.9
20260506084022 61 234 5.0 11.0 0.00 0.89 0.00 76 1005.9
20260506083016 61 250 5.0 11.0 0.00 0.89 0.00 75 1005.8
20260506082051 60 231 4.0 9.0 0.00 0.89 0.00 78 1005.9
20260506081126 60 255 5.0 9.0 0.00 0.89 0.00 76 1005.8
20260506073025 62 242 5.0 10.0 0.00 0.89 0.00 78 1005.8
20260506072019 61 241 7.0 14.0 0.00 0.89 0.00 79 1005.7
20260506071034 60 250 6.0 11.0 0.00 0.89 0.00 81 1005.7
20260506062128 57 205 2.0 3.0 0.00 0.89 0.00 89 1005.8
20260506061023 56 188 2.0 6.0 0.00 0.89 0.00 89 1005.8